EW5029 Weather Reports


Display with metric or nautical units.
time (UTC)temp
F
wind
direction
speed
MPH
gust
MPH
rain 1hr
in
rain 24hr
in
rain mn
in
humidity
%
barometer
mb
20260508000053 53 16 0.0 3.0 0.00 0.00 0.00 78 1018.1
20260507235553 53 355 0.0 3.0 0.00 0.00 0.00 78 1018.1
20260507235052 53 34 0.0 4.0 0.00 0.00 0.00 77 1018.2
20260507234552 53 31 0.0 4.0 0.00 0.00 0.00 77 1018.2
20260507234054 54 61 0.0 2.0 0.00 0.00 0.00 77 1018.2
20260507233551 54 41 0.0 4.0 0.00 0.00 0.00 77 1018.2
20260507233051 54 21 0.0 4.0 0.00 0.00 0.00 77 1018.2
20260507232550 54 51 1.0 4.0 0.00 0.00 0.00 77 1018.2
20260507232050 54 61 0.0 3.0 0.00 0.00 0.00 77 1018.2
20260507231551 54 11 0.0 2.0 0.00 0.00 0.00 77 1018.3
20260507231050 54 339 0.0 3.0 0.00 0.00 0.00 77 1018.3
20260507230550 54 32 0.0 3.0 0.00 0.00 0.00 77 1018.3
20260507230106 54 20 0.0 3.0 0.00 0.00 0.00 77 1018.2
20260507225548 54 43 0.0 5.0 0.00 0.00 0.00 77 1018.2
20260507225049 54 85 0.0 5.0 0.00 0.00 0.00 77 1018.2
20260507224549 54 23 0.0 4.0 0.00 0.00 0.00 77 1018.2
20260507224048 54 73 1.0 4.0 0.00 0.00 0.00 77 1018.2
20260507223548 54 344 0.0 4.0 0.00 0.00 0.00 77 1018.2
20260507223133 54 332 0.0 3.0 0.00 0.00 0.00 77 1018.2
20260507222547 54 342 0.0 5.0 0.00 0.00 0.00 77 1018.2
20260507222046 54 60 0.0 5.0 0.00 0.00 0.00 78 1018.2
20260507221547 54 58 1.0 5.0 0.00 0.00 0.00 78 1018.2
20260507221046 54 42 0.0 2.0 0.00 0.00 0.00 78 1018.2
20260507220545 54 47 0.0 2.0 0.00 0.00 0.00 77 1018.2
20260507220045 54 44 0.0 3.0 0.00 0.00 0.00 77 1018.2
20260507215544 54 71 0.0 3.0 0.00 0.00 0.00 77 1018.1
20260507215045 54 59 0.0 3.0 0.00 0.00 0.00 77 1018.1
20260507214552 54 46 0.0 3.0 0.00 0.00 0.00 77 1018.1
20260507214043 54 40 0.0 3.0 0.00 0.00 0.00 76 1018.1
20260507213543 54 355 0.0 5.0 0.00 0.00 0.00 76 1018.1
20260507213042 54 53 1.0 5.0 0.00 0.00 0.00 76 1018.1
20260507212542 54 40 1.0 3.0 0.00 0.00 0.00 75 1018.1
20260507212043 54 34 0.0 3.0 0.00 0.00 0.00 75 1018.1
20260507211547 54 26 0.0 4.0 0.00 0.00 0.00 75 1018.1
20260507211042 54 28 0.0 4.0 0.00 0.00 0.00 74 1018.1
20260507210545 55 65 0.0 5.0 0.00 0.00 0.00 74 1018.1
20260507210046 55 60 1.0 5.0 0.00 0.00 0.00 74 1018.1
20260507205542 55 43 0.0 4.0 0.00 0.00 0.00 73 1018.1
20260507205042 55 63 1.0 3.0 0.00 0.00 0.00 73 1018.1
20260507204544 55 321 0.0 4.0 0.00 0.00 0.00 73 1018.0
20260507204040 55 71 1.0 4.0 0.00 0.00 0.00 72 1018.0
20260507203541 55 336 0.0 3.0 0.00 0.00 0.00 72 1017.9
20260507203043 55 46 1.0 4.0 0.00 0.00 0.00 72 1018.0
20260507202539 55 51 1.0 4.0 0.00 0.00 0.00 71 1018.0
20260507202043 55 24 1.0 5.0 0.00 0.00 0.00 71 1017.9
20260507201542 55 67 1.0 7.0 0.00 0.00 0.00 70 1017.8
20260507201038 55 58 1.0 7.0 0.00 0.00 0.00 70 1017.7
20260507200537 55 64 1.0 6.0 0.00 0.00 0.00 69 1017.7
20260507200051 55 38 2.0 6.0 0.00 0.00 0.00 69 1017.6
20260507195536 55 65 2.0 8.0 0.00 0.00 0.00 68 1017.6
20260507195036 56 19 1.0 8.0 0.00 0.00 0.00 67 1017.6
20260507194535 56 53 1.0 8.0 0.00 0.00 0.00 67 1017.6
20260507194034 56 33 2.0 8.0 0.00 0.00 0.00 67 1017.5
20260507193534 56 59 2.0 9.0 0.00 0.00 0.00 66 1017.5
20260507193043 56 54 2.0 9.0 0.00 0.00 0.00 66 1017.5
20260507192533 57 110 1.0 6.0 0.00 0.00 0.00 65 1017.4
20260507192032 57 347 1.0 6.0 0.00 0.00 0.00 65 1017.4
20260507191533 57 333 0.0 6.0 0.00 0.00 0.00 64 1017.3
20260507191035 57 24 2.0 5.0 0.00 0.00 0.00 63 1017.3
20260507190532 57 49 1.0 4.0 0.00 0.00 0.00 63 1017.3
20260507190036 57 51 1.0 5.0 0.00 0.00 0.00 62 1017.3
20260507185530 58 46 1.0 4.0 0.00 0.00 0.00 62 1017.3
20260507185033 58 22 1.0 3.0 0.00 0.00 0.00 62 1017.3
20260507184531 58 324 0.0 3.0 0.00 0.00 0.00 61 1017.3
20260507184029 58 303 0.0 3.0 0.00 0.00 0.00 61 1017.3
20260507183530 58 31 0.0 3.0 0.00 0.00 0.00 61 1017.3
20260507183037 58 307 0.0 3.0 0.00 0.00 0.00 61 1017.2
20260507182530 58 360 0.0 5.0 0.00 0.00 0.00 61 1017.3
20260507182030 58 26 0.0 5.0 0.00 0.00 0.00 60 1017.2
20260507181533 58 344 0.0 4.0 0.00 0.00 0.00 60 1017.2
20260507181029 58 28 1.0 4.0 0.00 0.00 0.00 59 1017.2
20260507180530 58 14 1.0 4.0 0.00 0.00 0.00 58 1017.2
20260507180029 58 39 1.0 3.0 0.00 0.00 0.00 58 1017.2
20260507175531 58 56 0.0 3.0 0.00 0.00 0.00 58 1017.2
20260507175027 58 59 1.0 3.0 0.00 0.00 0.00 57 1017.2
20260507174528 58 300 1.0 3.0 0.00 0.00 0.00 56 1017.2
20260507174027 58 292 1.0 3.0 0.00 0.00 0.00 56 1017.2
20260507173526 58 26 0.0 5.0 0.00 0.00 0.00 57 1017.2
20260507173027 58 35 0.0 5.0 0.00 0.00 0.00 56 1017.1
20260507172527 58 318 1.0 5.0 0.00 0.00 0.00 56 1017.2
20260507172026 59 74 1.0 5.0 0.00 0.00 0.00 56 1017.1
20260507171526 59 64 3.0 5.0 0.00 0.00 0.00 56 1017.1
20260507171026 59 29 1.0 6.0 0.00 0.00 0.00 57 1017.1
20260507170526 59 51 2.0 4.0 0.00 0.00 0.00 57 1017.1
20260507170027 59 298 1.0 5.0 0.00 0.00 0.00 57 1017.1
20260507165525 59 290 1.0 5.0 0.00 0.00 0.00 57 1017.1
20260507165025 59 57 1.0 4.0 0.00 0.00 0.00 57 1017.0
20260507164525 59 323 1.0 4.0 0.00 0.00 0.00 56 1017.0
20260507164024 59 68 1.0 7.0 0.00 0.00 0.00 55 1017.0
20260507163527 59 31 2.0 7.0 0.00 0.00 0.00 54 1017.0
20260507163027 59 339 2.0 6.0 0.00 0.00 0.00 54 1017.1
20260507162525 59 30 1.0 5.0 0.00 0.00 0.00 54 1017.0
20260507162028 59 23 1.0 5.0 0.00 0.00 0.00 54 1017.0
20260507161529 59 61 0.0 5.0 0.00 0.00 0.00 54 1017.1
20260507161023 60 59 2.0 5.0 0.00 0.00 0.00 53 1017.0
20260507160524 60 5 1.0 3.0 0.00 0.00 0.00 54 1017.0
20260507160026 60 341 0.0 6.0 0.00 0.00 0.00 53 1016.9
20260507155523 60 65 1.0 6.0 0.00 0.00 0.00 53 1016.9
20260507155024 60 293 1.0 4.0 0.00 0.00 0.00 53 1016.9
20260507154527 60 67 1.0 4.0 0.00 0.00 0.00 52 1016.9
20260507154024 60 293 2.0 4.0 0.00 0.00 0.00 50 1016.9
20260507153522 60 304 0.0 5.0 0.00 0.00 0.00 50 1016.9
20260507153024 60 80 1.0 5.0 0.00 0.00 0.00 50 1016.8
20260507152521 60 65 1.0 4.0 0.00 0.00 0.00 51 1016.8
20260507152021 60 360 0.0 5.0 0.00 0.00 0.00 50 1016.8
20260507151525 60 12 2.0 6.0 0.00 0.00 0.00 50 1016.8
20260507151021 60 309 2.0 6.0 0.00 0.00 0.00 50 1016.8
20260507150521 60 58 1.0 6.0 0.00 0.00 0.00 51 1016.8
20260507150023 61 46 1.0 4.0 0.00 0.00 0.00 51 1016.7
20260507145520 61 53 1.0 4.0 0.00 0.00 0.00 49 1016.7
20260507145020 61 312 0.0 7.0 0.00 0.00 0.00 48 1016.7
20260507144527 62 53 1.0 7.0 0.00 0.00 0.00 47 1016.7
20260507144020 62 292 1.0 4.0 0.00 0.00 0.00 46 1016.6
20260507143520 62 39 1.0 3.0 0.00 0.00 0.00 45 1016.6
20260507143019 62 322 0.0 2.0 0.00 0.00 0.00 44 1016.7
20260507142520 62 71 1.0 5.0 0.00 0.00 0.00 45 1016.7
20260507142021 63 70 2.0 6.0 0.00 0.00 0.00 43 1016.7
20260507141518 63 63 1.0 8.0 0.00 0.00 0.00 44 1016.7
20260507141017 62 63 1.0 8.0 0.00 0.00 0.00 46 1016.8
20260507140518 62 72 2.0 5.0 0.00 0.00 0.00 47 1016.9
20260507140015 62 9 2.0 8.0 0.00 0.00 0.00 46 1017.0
20260507135519 61 288 2.0 8.0 0.00 0.00 0.00 48 1017.0
20260507135014 61 286 0.0 4.0 0.00 0.00 0.00 49 1017.0
20260507134514 61 81 2.0 4.0 0.00 0.00 0.00 49 1017.0
20260507134014 60 44 0.0 8.0 0.00 0.00 0.00 50 1017.0
20260507133516 60 297 1.0 8.0 0.00 0.00 0.00 52 1017.0
20260507133014 60 70 2.0 6.0 0.00 0.00 0.00 52 1017.1
20260507132515 60 33 1.0 6.0 0.00 0.00 0.00 53 1017.1
20260507132014 60 69 2.0 5.0 0.00 0.00 0.00 53 1017.0
20260507131523 60 63 1.0 5.0 0.00 0.00 0.00 51 1017.0
20260507131014 59 285 1.0 5.0 0.00 0.00 0.00 49 1017.0
20260507130512 59 274 2.0 5.0 0.00 0.00 0.00 49 1017.0
20260507130012 59 74 1.0 7.0 0.00 0.00 0.00 52 1017.0
20260507125514 59 80 1.0 7.0 0.00 0.00 0.00 51 1016.9
20260507125012 59 62 1.0 4.0 0.00 0.00 0.00 51 1017.0
20260507124512 60 333 1.0 7.0 0.00 0.00 0.00 51 1017.0
20260507124011 60 33 2.0 7.0 0.00 0.00 0.00 50 1017.0
20260507123512 60 64 2.0 8.0 0.00 0.00 0.00 51 1016.9
20260507123012 60 67 3.0 8.0 0.00 0.00 0.00 49 1016.9
20260507122511 60 5 1.0 6.0 0.00 0.00 0.00 49 1016.9
20260507122011 61 283 1.0 3.0 0.00 0.00 0.00 49 1016.9
20260507121511 61 332 0.0 2.0 0.00 0.00 0.00 51 1016.9
20260507121011 61 360 0.0 4.0 0.00 0.00 0.00 49 1016.9
20260507120509 60 134 1.0 4.0 0.00 0.00 0.00 51 1017.0
20260507120010 60 36 0.0 3.0 0.00 0.00 0.00 50 1017.0
20260507115510 60 15 0.0 3.0 0.00 0.00 0.00 48 1016.9
20260507115010 60 297 1.0 4.0 0.00 0.00 0.00 48 1017.0
20260507114510 60 305 1.0 4.0 0.00 0.00 0.00 48 1017.0
20260507114009 60 286 1.0 5.0 0.00 0.00 0.00 48 1017.0
20260507113509 60 62 1.0 5.0 0.00 0.00 0.00 49 1017.0
20260507113009 61 62 1.0 8.0 0.00 0.00 0.00 49 1017.0
20260507112508 61 288 1.0 8.0 0.00 0.00 0.00 47 1017.0
20260507112008 62 46 2.0 8.0 0.00 0.00 0.00 48 1017.0
20260507111509 62 286 2.0 6.0 0.00 0.00 0.00 46 1017.0
20260507111008 62 298 1.0 5.0 0.00 0.00 0.00 47 1017.0
20260507110506 61 5 2.0 7.0 0.00 0.00 0.00 48 1017.0
20260507110005 61 242 2.0 5.0 0.00 0.00 0.00 48 1017.0
20260507105504 60 267 1.0 5.0 0.00 0.00 0.00 49 1017.1
20260507105004 60 344 1.0 5.0 0.00 0.00 0.00 49 1017.1
20260507104503 60 20 1.0 6.0 0.00 0.00 0.00 51 1017.2
20260507104003 60 284 1.0 6.0 0.00 0.00 0.00 49 1017.2
20260507103503 60 317 2.0 6.0 0.00 0.00 0.00 49 1017.1
20260507103001 60 112 1.0 6.0 0.00 0.00 0.00 52 1017.1
20260507102600 61 68 2.0 6.0 0.00 0.00 0.00 51 1017.2
20260507102059 60 27 0.0 6.0 0.00 0.00 0.00 54 1017.1
20260507101601 59 252 1.0 6.0 0.00 0.00 0.00 53 1017.2
20260507101056 59 42 1.0 8.0 0.00 0.00 0.00 53 1017.1
20260507100554 59 275 2.0 7.0 0.00 0.00 0.00 54 1017.1
20260507100106 59 44 0.0 7.0 0.00 0.00 0.00 56 1017.1
20260507095554 58 276 2.0 7.0 0.00 0.00 0.00 56 1017.1
20260507095051 58 281 2.0 5.0 0.00 0.00 0.00 57 1017.1
20260507094551 58 306 1.0 4.0 0.00 0.00 0.00 58 1017.0
20260507094049 58 55 1.0 4.0 0.00 0.00 0.00 58 1017.0
20260507093548 57 55 1.0 4.0 0.00 0.00 0.00 58 1017.0
20260507093047 57 317 2.0 7.0 0.00 0.00 0.00 58 1016.9
20260507092546 58 292 2.0 5.0 0.00 0.00 0.00 59 1017.0
20260507092043 57 114 2.0 7.0 0.00 0.00 0.00 59 1017.0
20260507091542 57 277 2.0 7.0 0.00 0.00 0.00 60 1016.9
20260507091042 57 285 2.0 5.0 0.00 0.00 0.00 60 1016.9
20260507090641 57 287 2.0 6.0 0.00 0.00 0.00 59 1016.9
20260507090044 57 67 3.0 6.0 0.00 0.00 0.00 61 1016.9
20260507085539 56 294 1.0 6.0 0.00 0.00 0.00 60 1016.9
20260507085038 56 77 2.0 8.0 0.00 0.00 0.00 60 1016.9
20260507084545 56 274 2.0 8.0 0.00 0.00 0.00 61 1016.9
20260507084036 56 63 1.0 6.0 0.00 0.00 0.00 61 1016.9
20260507083535 56 74 2.0 6.0 0.00 0.00 0.00 62 1016.9
20260507083046 55 72 3.0 6.0 0.00 0.00 0.00 62 1016.9
20260507082533 55 284 2.0 5.0 0.00 0.00 0.00 61 1016.9
20260507082030 56 288 1.0 4.0 0.00 0.00 0.00 60 1016.9
20260507081529 56 65 1.0 4.0 0.00 0.00 0.00 61 1016.8
20260507081029 55 313 1.0 5.0 0.00 0.00 0.00 61 1016.8
20260507080530 55 63 1.0 5.0 0.00 0.00 0.00 61 1016.8
20260507080025 54 81 1.0 5.0 0.00 0.00 0.00 62 1016.8
20260507075528 54 76 1.0 5.0 0.00 0.00 0.00 63 1016.7
20260507075025 54 53 1.0 5.0 0.00 0.00 0.00 64 1016.8
20260507074522 54 10 2.0 5.0 0.00 0.00 0.00 64 1016.7
20260507074021 53 5 2.0 6.0 0.00 0.00 0.00 66 1016.7
20260507073524 53 32 1.0 6.0 0.00 0.00 0.00 66 1016.7
20260507073019 53 88 3.0 6.0 0.00 0.00 0.00 67 1016.7
20260507072519 53 45 2.0 5.0 0.00 0.00 0.00 69 1016.7
20260507072015 52 339 1.0 4.0 0.00 0.00 0.00 71 1016.6
20260507071514 51 348 0.0 4.0 0.00 0.00 0.00 72 1016.6
20260507071014 51 82 0.0 5.0 0.00 0.00 0.00 73 1016.6
20260507070512 51 34 1.0 8.0 0.00 0.00 0.00 74 1016.6
20260507070013 51 62 2.0 8.0 0.00 0.00 0.00 75 1016.6
20260507065509 50 10 2.0 4.0 0.00 0.00 0.00 76 1016.6
20260507065008 50 5 1.0 5.0 0.00 0.00 0.00 78 1016.6
20260507064508 49 313 2.0 5.0 0.00 0.00 0.00 80 1016.6
20260507064007 49 315 1.0 4.0 0.00 0.00 0.00 82 1016.6
20260507063507 49 27 0.0 3.0 0.00 0.00 0.00 84 1016.5
20260507063005 48 292 1.0 3.0 0.00 0.00 0.00 85 1016.5
20260507062506 48 331 0.0 3.0 0.00 0.00 0.00 87 1016.5
20260507062004 47 308 0.0 3.0 0.00 0.00 0.00 88 1016.4
20260507061504 47 307 0.0 2.0 0.00 0.00 0.00 89 1016.4
20260507061003 46 282 1.0 2.0 0.00 0.00 0.00 90 1016.3
20260507060502 46 329 0.0 2.0 0.00 0.00 0.00 91 1016.3
20260507060007 45 320 0.0 2.0 0.00 0.00 0.00 92 1016.3
20260507055502 45 306 0.0 0.0 0.00 0.00 0.00 92 1016.3
20260507055001 45 306 0.0 0.0 0.00 0.00 0.00 92 1016.2
20260507054501 45 302 0.0 0.0 0.00 0.00 0.00 92 1016.2
20260507054100 44 302 0.0 0.0 0.00 0.00 0.00 92 1016.2
20260507053600 44 302 0.0 1.0 0.00 0.00 0.00 92 1016.1
20260507053059 44 302 0.0 3.0 0.00 0.00 0.00 92 1016.2
20260507052600 44 302 0.0 3.0 0.00 0.00 0.00 92 1016.1
20260507052058 44 336 0.0 2.0 0.00 0.00 0.00 93 1016.0
20260507051558 43 11 0.0 0.0 0.00 0.00 0.00 92 1016.0
20260507051059 43 11 0.0 0.0 0.00 0.00 0.00 92 1015.9
20260507050559 43 11 0.0 0.0 0.00 0.00 0.00 92 1015.9
20260507050057 43 11 0.0 0.0 0.00 0.00 0.00 92 1015.9
20260507045555 43 11 0.0 1.0 0.00 0.00 0.00 92 1015.8
20260507045053 42 11 0.0 1.0 0.00 0.00 0.00 92 1015.7
20260507044552 42 11 0.0 0.0 0.00 0.00 0.00 91 1015.6
20260507044055 42 11 0.0 0.0 0.00 0.00 0.00 91 1015.7
20260507043551 42 11 0.0 0.0 0.00 0.00 0.00 91 1015.6
20260507043051 42 11 0.0 1.0 0.00 0.00 0.00 91 1015.6
20260507042551 42 11 0.0 0.0 0.00 0.00 0.00 91 1015.5
20260507042050 41 11 0.0 0.0 0.00 0.00 0.00 90 1015.5
20260507041550 41 11 0.0 0.0 0.00 0.00 0.00 90 1015.5
20260507041050 41 11 0.0 0.0 0.00 0.00 0.00 90 1015.5
20260507040548 41 11 0.0 0.0 0.00 0.00 0.00 90 1015.4
20260507040047 41 11 0.0 0.0 0.00 0.00 0.00 89 1015.4
20260507035546 42 11 0.0 0.0 0.00 0.00 0.00 89 1015.4
20260507035047 42 11 0.0 0.0 0.00 0.00 0.00 89 1015.4
20260507034547 42 11 0.0 0.0 0.00 0.00 0.00 89 1015.3
20260507034045 42 11 0.0 0.0 0.00 0.00 0.00 89 1015.3
20260507033547 42 11 0.0 0.0 0.00 0.00 0.00 88 1015.2
20260507033043 43 11 0.0 0.0 0.00 0.00 0.00 89 1015.2
20260507032545 43 11 0.0 0.0 0.00 0.00 0.00 88 1015.2
20260507032046 43 11 0.0 0.0 0.00 0.00 0.00 88 1015.2
20260507031541 43 11 0.0 0.0 0.00 0.00 0.00 88 1015.2
20260507031044 43 11 0.0 0.0 0.00 0.00 0.00 88 1015.1
20260507030540 43 11 0.0 1.0 0.00 0.00 0.00 87 1015.1
20260507030040 43 11 0.0 1.0 0.00 0.00 0.00 87 1015.1
20260507025538 43 11 0.0 0.0 0.00 0.00 0.00 86 1015.1
20260507025041 43 11 0.0 0.0 0.00 0.00 0.00 86 1015.0
20260507024537 44 11 0.0 0.0 0.00 0.00 0.00 86 1015.1
20260507024038 44 11 0.0 0.0 0.00 0.00 0.00 86 1015.1
20260507023544 44 11 0.0 0.0 0.00 0.00 0.00 86 1015.1
20260507023040 44 11 0.0 0.0 0.00 0.00 0.00 86 1015.0
20260507022533 45 11 0.0 0.0 0.00 0.00 0.00 86 1015.0
20260507022034 45 11 0.0 0.0 0.00 0.00 0.00 85 1015.0
20260507021532 45 11 0.0 0.0 0.00 0.00 0.00 85 1015.0
20260507021033 45 11 0.0 0.0 0.00 0.00 0.00 85 1015.0
20260507020531 45 11 0.0 0.0 0.00 0.00 0.00 85 1014.9
20260507020029 46 11 0.0 0.0 0.00 0.00 0.00 84 1014.9
20260507015528 46 11 0.0 0.0 0.00 0.00 0.00 84 1014.7
20260507015028 46 11 0.0 0.0 0.00 0.00 0.00 84 1014.7
20260507014538 46 11 0.0 0.0 0.00 0.00 0.00 84 1014.6
20260507014027 46 299 0.0 2.0 0.00 0.00 0.00 84 1014.6
20260507013526 46 297 0.0 2.0 0.00 0.00 0.00 84 1014.7
20260507013027 46 342 0.0 3.0 0.00 0.00 0.00 83 1014.6
20260507012525 46 298 0.0 3.0 0.00 0.00 0.00 83 1014.7
20260507012025 46 317 0.0 3.0 0.00 0.00 0.00 83 1014.7
20260507011527 47 331 0.0 3.0 0.00 0.00 0.00 83 1014.6
20260507011023 47 299 1.0 3.0 0.00 0.00 0.00 83 1014.6
20260507010526 47 28 0.0 4.0 0.00 0.00 0.00 82 1014.6
20260507010022 47 305 1.0 4.0 0.00 0.00 0.00 82 1014.6
20260507005622 47 304 1.0 3.0 0.00 0.00 0.00 82 1014.6
20260507005021 47 36 1.0 4.0 0.00 0.00 0.00 82 1014.6
20260507004532 47 37 0.0 3.0 0.00 0.00 0.00 82 1014.5
20260507004020 47 329 0.0 4.0 0.00 0.00 0.00 82 1014.5
20260507003521 47 48 1.0 5.0 0.00 0.00 0.00 82 1014.5
20260507003019 47 331 2.0 5.0 0.00 0.00 0.00 82 1014.4
20260507002519 47 314 1.0 4.0 0.00 0.00 0.00 82 1014.5
20260507002019 47 67 1.0 4.0 0.00 0.00 0.00 82 1014.5
20260507001524 47 339 1.0 5.0 0.00 0.00 0.00 82 1014.5
20260507001017 47 27 2.0 5.0 0.00 0.00 0.00 82 1014.4
20260507000517 47 323 1.0 5.0 0.00 0.00 0.00 82 1014.4